Probability
0 0 0 0 0 0 0 0 0 0 1 3 6 11 15 16 17 19 22 24 24 24 23 22 20 17 16 15 13 12 11 9 6 5 3 1 0 0 0 1 2 3 2 1
0 0 0 0 0 0 0 0 0 0 1 2 6 10 14 16 17 19 20 23 24 24 23 21 18 16 15 14 13 11 10 8 5 4 3 1 0 0 0 0 1 2 2 1
0 0 0 0 0 0 0 0 0 0 0 1 4 7 10 14 17 18 19 21 23 24 25 23 18 15 13 13 13 11 9 7 5 4 3 1 1 1 1 1 1 2 2 2
0 0 0 0 0 0 0 0 0 0 0 0 1 2 6 12 17 19 20 21 21 21 23 24 19 14 11 10 11 11 8 7 6 5 3 2 2 2 2 2 2 3 3 3
0 0 0 0 0 0 0 0 0 0 0 0 0 0 3 9 15 18 20 20 17 16 20 22 18 13 9 7 8 8 8 6 5 4 3 2 1 1 2 3 3 3 3 2
0 0 0 0 0 0 0 0 0 0 0 0 0 0 1 5 11 15 16 15 15 15 17 18 16 12 8 6 6 6 6 6 5 4 3 1 0 0 1 2 2 2 1 1
0 0 0 0 0 0 0 0 0 0 0 0 0 0 0 3 9 13 13 13 15 16 15 14 13 11 8 7 5 5 6 6 6 4 2 1 0 0 1 1 1 1 0 0
0 0 0 0 0 0 0 0 0 0 0 0 0 0 0 2 7 11 12 13 16 16 13 11 10 9 8 7 5 5 5 5 4 3 2 1 1 0 0 0 0 0 0 0
0 0 0 0 0 0 0 0 0 0 0 0 0 0 0 3 7 10 11 13 14 13 9 8 8 8 8 7 5 4 4 4 3 2 1 1 1 0 0 0 0 0 0 0
0 0 0 0 0 0 0 0 0 0 0 0 0 0 1 4 8 10 11 12 12 9 7 6 7 7 7 6 4 3 3 3 2 2 1 1 0 0 0 0 0 0 0 0
0 0 0 0 0 0 0 0 0 0 0 0 0 0 1 4 8 10 10 10 9 7 6 6 6 5 5 4 3 3 3 3 3 2 1 0 0 0 0 0 0 0 0 0
0 0 0 0 0 0 0 0 0 0 0 0 0 1 2 4 6 8 8 8 7 5 5 5 4 4 3 3 3 3 3 3 3 2 1 0 0 0 0 0 0 0 0 0
0 0 0 0 0 0 0 0 0 0 0 0 0 1 2 3 4 5 6 6 5 3 2 3 3 3 3 3 3 3 3 3 2 1 0 0 0 0 0 0 0 0 0 0
0 0 0 0 0 0 0 0 0 0 0 0 0 0 1 1 1 2 3 4 3 1 0 1 3 3 3 3 3 3 3 3 1 0 0 0 0 0 0 0 0 0 0 0
0 0 0 0 0 0 0 0 0 0 0 1 1 0 0 0 0 1 2 3 3 1 0 1 3 3 3 3 3 3 3 2 1 0 0 0 0 0 0 0 0 0 0 0
0 0 0 0 0 0 0 0 0 0 0 1 1 0 0 1 1 1 2 2 2 2 1 2 3 3 3 3 3 3 3 2 1 0 0 0 0 0 0 0 0 0 0 0
0 0 0 0 0 0 0 0 0 0 0 1 1 0 0 1 1 1 1 1 1 1 1 1 2 3 3 3 3 2 1 1 0 0 0 0 0 0 0 0 0 0 0 0
0 0 0 0 0 0 0 0 0 0 0 0 0 0 0 1 1 0 0 0 0 0 0 0 1 2 3 3 2 1 0 0 0 0 0 0 0 0 0 0 0 0 0 0
0 0 0 0 0 0 0 0 0 0 1 0 0 0 0 0 0 0 0 0 0 0 0 0 0 1 1 2 1 0 0 0 0 0 0 0 0 0 0 0 0 0 0 0
0 0 0 1 0 0 0 0 0 0 0 0 0 0 0 0 0 0 0 0 0 1 1 1 0 0 0 0 0 0 0 0 0 0 0 0 0 0 0 0 0 0 0 0
0 0 0 0 0 0 0 0 0 0 0 0 0 0 0 0 0 0 0 0 0 1 1 1 0 0 0 0 0 0 0 0 0 0 0 0 0 0 0 0 0 0 0 0
0 0 0 0 0 0 0 0 0 0 0 0 0 0 0 0 0 0 0 0 0 0 0 0 0 0 0 0 0 0 0 0 0 0 0 0 0 0 0 0 0 0 0 0
0 0 0 0 0 0 0 0 0 0 0 0 0 0 0 0 0 0 0 0 0 0 0 0 0 0 0 0 0 0 0 0 0 0 0 0 0 0 0 0 0 0 0 0
0 0 0 0 0 0 0 0 0 0 0 0 0 0 0 0 0 0 0 0 0 0 0 0 0 0 0 0 0 0 0 0 0 0 0 0 0 0 0 0 0 0 0 0
0 0 0 0 0 0 0 0 0 0 0 0 0 0 0 0 0 0 0 0 0 0 0 0 0 0 0 0 0 0 0 0 0 0 0 0 0 0 0 0 0 0 0 0
0 0 0 0 0 0 0 0 0 0 0 0 0 0 0 0 0 0 0 0 0 0 0 0 0 0 0 0 0 0 0 0 0 0 0 0 0 0 0 0 0 0 0 0
Wind_Speed
1 3 2 6 5 6 3 2 3 5 5 5 7 9 10 9 9 10 10 10 11 9 7 7 7 6 6 6 6 6 5 4 4 3 3 3 2 2 2 1 2 2 3 3
4 4 8 5 4 4 2 2 4 4 2 4 6 6 7 9 11 12 12 12 12 10 9 8 7 5 5 6 6 5 5 4 3 2 2 2 2 2 1 1 1 2 2 2
5 7 4 3 4 3 4 5 5 4 0 4 6 1 1 2 4 6 8 9 11 13 12 9 8 6 6 5 5 5 4 4 3 3 3 3 3 2 2 1 1 1 1 2
5 7 4 3 5 4 4 5 4 4 4 0 3 3 3 3 4 6 8 9 9 10 10 9 8 8 7 6 5 6 5 4 3 3 3 4 3 2 1 1 0 1 2 2
5 3 3 4 6 4 4 3 3 3 4 3 2 3 3 2 4 7 9 10 10 10 10 9 8 7 7 7 6 5 5 3 3 3 3 3 2 1 1 1 2 2 2 2
7 4 3 5 4 3 3 4 6 6 5 2 2 2 3 3 6 8 9 10 10 10 9 8 7 7 7 6 6 5 5 3 3 3 3 3 3 2 3 2 2 1 1 2
4 4 2 2 1 2 5 6 4 5 4 3 2 2 4 4 5 8 10 10 9 9 8 9 9 9 8 7 6 5 5 3 2 3 2 2 2 3 3 2 1 1 1 1
0 4 3 2 4 4 3 8 7 4 4 3 2 1 3 2 1 5 8 9 10 9 8 8 8 8 7 6 6 5 4 3 2 2 2 2 2 2 1 1 1 1 0 1
3 4 3 1 1 5 3 2 6 7 2 1 2 1 1 3 5 6 8 10 10 9 9 8 8 7 6 6 5 5 4 3 2 2 2 2 3 3 2 1 1 0 0 0
5 1 3 3 5 4 4 4 5 5 4 1 2 3 4 4 4 5 7 8 8 8 8 8 7 7 5 5 4 4 4 4 3 2 2 3 3 2 2 2 2 2 2 2
3 3 3 3 2 0 2 3 4 4 5 5 2 5 4 8 8 9 8 8 9 9 8 8 7 7 6 5 4 3 3 3 3 3 3 3 3 2 3 2 2 2 2 2
2 5 1 4 3 2 3 3 5 5 3 3 3 5 0 6 7 9 9 9 8 8 8 8 8 7 6 5 4 4 3 3 3 3 3 3 2 3 3 2 2 2 2 2
4 5 2 5 6 4 2 0 3 5 5 3 3 4 1 6 6 7 9 9 9 9 8 7 7 7 6 5 4 4 3 3 3 3 3 3 2 2 2 1 2 2 2 3
5 4 5 5 5 2 2 2 1 5 4 3 5 5 4 6 7 7 8 9 9 9 8 8 6 6 6 5 5 4 3 3 4 4 3 2 1 1 1 1 2 2 2 3
5 3 1 2 2 1 1 1 1 2 5 5 5 6 8 10 9 9 9 9 9 9 8 8 7 6 6 5 5 4 4 3 4 4 2 1 1 1 1 1 2 2 2 3
4 2 1 2 1 1 2 1 1 1 3 5 5 2 4 7 6 7 8 10 10 10 9 8 8 7 7 6 6 5 4 4 4 3 2 2 1 1 1 1 2 2 3 3
2 3 2 2 2 3 2 2 1 2 4 7 5 5 7 7 9 10 9 9 10 10 10 9 8 8 7 7 6 6 5 4 4 3 2 2 2 1 1 2 2 2 2 2
5 4 3 0 3 0 4 1 4 5 2 3 5 8 10 9 8 7 8 9 9 9 10 9 8 7 6 6 6 5 4 4 4 3 2 2 2 2 1 2 1 0 1 1
5 6 3 2 1 2 2 1 2 4 0 2 7 8 7 7 5 1 4 7 8 10 9 8 8 7 6 7 7 6 4 4 4 4 3 3 3 2 2 1 1 1 0 1
5 6 5 3 2 3 4 2 2 6 0 2 7 9 8 7 4 4 5 7 7 8 8 8 7 7 6 6 6 6 5 4 4 4 3 3 3 2 2 2 1 1 1 1
2 3 3 2 2 4 4 2 2 2 6 4 7 8 7 5 5 6 8 7 7 8 9 9 8 7 6 6 7 6 4 4 4 3 3 2 2 2 2 2 1 1 1 1
5 4 3 3 2 6 4 1 3 6 3 5 6 7 6 6 6 8 9 8 9 8 8 9 8 6 6 6 7 6 4 4 3 3 3 2 2 2 2 1 1 1 0 1
4 6 5 6 6 6 3 3 3 5 5 4 5 6 9 8 7 8 7 8 8 9 9 7 8 7 5 6 6 6 4 3 3 3 2 2 1 1 1 1 1 1 1 1
0 3 4 2 2 1 2 3 3 5 5 6 8 9 9 9 9 8 8 7 8 7 7 7 8 7 5 5 5 5 4 4 4 3 2 2 1 1 1 1 1 1 2 2
3 3 3 2 2 2 1 3 5 5 7 8 8 8 10 11 9 8 7 8 7 6 6 7 8 7 6 5 5 5 5 5 4 3 2 2 2 2 2 2 2 3 4 4
2 5 6 6 7 5 5 5 6 8 8 9 9 8 8 10 11 8 8 7 7 7 6 7 7 7 6 6 5 5 5 5 4 3 2 2 2 2 2 2 3 5 5 7
Wind_Direction
323 69 250 239 209 196 205 241 252 251 211 149 162 166 180 178 168 162 162 161 156 156 151 143 129 124 116 109 106 105 104 104 107 110 113 107 103 103 84 75 82 73 66 62
10 274 240 236 248 225 223 245 269 291 219 151 163 179 181 181 180 171 170 168 159 150 147 145 134 125 121 123 116 110 109 105 100 113 117 118 117 111 108 70 46 56 70 64
214 247 235 222 247 247 246 213 224 219 52 79 114 82 200 195 157 163 168 168 165 162 160 156 146 139 130 127 127 118 108 100 92 93 89 82 66 57 50 37 14 4 47 59
245 249 236 220 239 202 245 226 189 169 113 70 128 164 252 189 152 167 170 171 174 166 160 160 153 147 143 136 125 115 110 105 105 104 109 115 120 133 171 155 53 5 26 38
266 242 209 221 236 202 210 197 137 128 111 75 29 123 261 198 181 184 180 177 175 170 166 161 156 148 142 135 128 122 114 112 108 104 114 117 112 125 92 76 60 29 16 19
248 250 213 218 236 193 149 74 45 48 68 62 253 145 259 225 210 190 181 178 172 165 158 150 141 132 130 128 123 118 113 107 105 105 108 120 124 113 94 80 68 31 7 2
312 301 273 188 126 323 82 88 42 11 18 258 272 136 238 251 212 184 175 170 161 147 141 142 141 133 129 131 127 124 120 110 102 103 101 109 120 120 121 127 106 69 17 347
292 298 280 209 171 186 167 136 154 177 211 264 332 197 254 306 153 144 142 138 135 133 135 140 137 130 131 131 127 123 119 119 102 97 90 82 89 98 107 118 123 122 201 260
186 255 283 297 137 138 141 163 165 133 139 114 285 250 306 55 80 103 118 130 138 142 140 137 132 130 134 130 124 122 122 110 95 101 98 77 76 85 87 74 67 62 318 338
163 225 303 317 47 34 130 143 90 103 136 218 273 246 216 176 143 127 128 134 138 142 138 133 130 131 127 123 118 115 116 118 110 90 90 92 81 83 83 81 59 41 19 25
122 135 317 12 76 125 53 75 106 117 142 153 223 262 217 177 167 154 146 142 143 144 144 140 140 136 128 126 130 128 123 116 100 90 89 85 75 71 70 67 50 40 30 27
124 122 216 267 259 180 153 154 139 144 191 161 172 260 283 152 156 147 144 143 141 140 144 144 143 140 140 146 149 148 144 133 127 119 101 90 77 67 59 45 33 39 35 29
118 106 70 345 344 3 37 111 140 130 121 150 168 242 109 125 133 143 146 148 147 145 146 146 148 153 155 154 150 146 144 145 132 120 106 94 78 70 60 35 30 38 39 34
109 111 154 191 221 250 298 308 124 119 136 176 198 182 173 158 154 154 152 151 151 153 154 153 156 159 157 153 148 145 149 147 133 121 114 110 109 107 79 43 41 38 44 48
92 107 175 244 243 222 280 294 52 140 167 172 193 181 192 180 174 167 158 154 154 155 156 159 160 158 152 145 146 147 146 142 136 128 130 148 151 111 80 58 45 43 40 49
86 118 53 343 338 21 349 320 23 130 131 136 138 186 181 158 143 144 157 160 165 165 165 164 161 159 158 155 153 150 148 145 134 134 151 151 125 96 77 70 64 53 38 34
116 119 97 288 305 25 342 278 150 159 159 153 176 190 149 149 159 166 168 168 170 169 164 162 162 165 163 161 154 154 157 147 136 137 138 135 132 112 98 95 74 52 31 35
139 121 123 147 25 281 250 239 118 120 136 159 153 156 163 166 170 168 164 166 167 168 163 160 157 158 157 153 147 150 149 145 143 139 144 141 133 124 111 93 80 28 11 15
136 132 121 117 135 277 298 344 135 129 230 161 141 146 144 130 102 103 165 158 167 167 162 160 155 150 151 151 149 144 143 146 144 148 155 156 148 143 146 150 217 242 297 318
77 95 113 127 147 231 248 270 137 102 213 201 147 149 147 129 145 209 173 150 151 153 151 149 146 141 148 156 150 144 147 149 163 171 170 162 157 159 181 207 230 252 257 271
70 61 108 153 194 254 249 248 82 149 220 188 154 153 153 165 181 167 150 143 147 146 147 146 146 149 159 158 147 148 154 172 184 171 157 156 168 183 196 214 239 257 286 330
163 154 173 151 185 248 266 106 165 204 174 153 149 147 140 131 124 133 139 139 144 141 142 145 147 152 158 154 148 151 171 187 166 152 153 169 194 203 186 208 266 272 249 315
169 175 172 178 207 230 219 166 165 143 137 149 147 145 137 132 136 136 139 142 146 146 147 146 148 149 154 157 153 159 181 166 149 144 162 188 210 223 203 204 242 277 274 263
203 125 114 117 232 194 115 110 124 129 135 146 142 142 140 136 138 133 139 142 145 146 147 145 145 149 159 166 163 171 174 161 152 161 186 198 197 237 260 246 226 228 245 248
200 138 122 147 187 113 119 147 136 116 120 127 130 133 140 136 138 140 145 149 148 145 146 148 152 161 170 170 169 172 167 155 154 170 187 199 214 223 249 267 253 237 236 221
207 163 160 195 198 168 193 187 139 127 134 138 132 130 138 143 147 149 152 151 150 151 151 154 160 165 170 167 170 174 170 162 159 173 192 203 221 236 241 263 295 285 258 260